TimeEDT,TemperatureF,Dew PointF,Humidity,Sea Level PressureIn,VisibilityMPH,Wind Direction,Wind SpeedMPH,Gust SpeedMPH,PrecipitationIn,Events,Conditions,WindDirDegrees,DateUTC
12:13 AM,68.0,62.6,83,29.65,7.0,SSW,9.2,20.7,0.01,Rain,Light Rain,210,2013-04-20 04:13:00
12:52 AM,66.0,62.1,87,29.65,7.0,SSW,10.4,18.4,0.09,Rain,Light Rain,200,2013-04-20 04:52:00
1:52 AM,64.9,62.1,90,29.62,10.0,South,6.9,-,0.01,,Overcast,170,2013-04-20 05:52:00
2:30 AM,57.2,51.8,82,29.64,8.0,WNW,20.7,28.8,0.02,Rain,Light Rain,290,2013-04-20 06:30:00
2:52 AM,55.0,52.0,89,29.64,7.0,WNW,6.9,-,0.06,Rain,Light Rain,300,2013-04-20 06:52:00
3:52 AM,54.0,51.1,90,29.66,10.0,NW,8.1,-,0.02,Rain,Light Rain,310,2013-04-20 07:52:00
4:16 AM,53.6,48.2,82,29.66,8.0,NW,4.6,-,0.01,Rain,Light Rain,310,2013-04-20 08:16:00
4:31 AM,51.8,48.2,88,29.66,8.0,NW,13.8,19.6,0.03,Rain,Light Rain,320,2013-04-20 08:31:00
4:52 AM,50.0,46.0,86,29.68,7.0,NW,11.5,-,0.06,Rain,Rain,320,2013-04-20 08:52:00
5:52 AM,48.0,43.0,83,29.72,10.0,NW,11.5,19.6,0.09,Rain,Light Rain,310,2013-04-20 09:52:00
6:52 AM,46.0,41.0,83,29.77,10.0,NW,10.4,-,0.02,Rain,Light Rain,310,2013-04-20 10:52:00
7:52 AM,46.0,39.9,79,29.81,10.0,WNW,12.7,-,0.01,,Overcast,290,2013-04-20 11:52:00
8:01 AM,46.4,39.2,76,29.80,10.0,WNW,10.4,-,N/A,,Overcast,300,2013-04-20 12:01:00
8:09 AM,46.4,39.2,76,29.81,10.0,WNW,10.4,-,N/A,,Overcast,300,2013-04-20 12:09:00
8:52 AM,46.9,41.0,80,29.81,10.0,WNW,4.6,-,N/A,,Overcast,290,2013-04-20 12:52:00
9:52 AM,48.0,37.9,68,29.82,10.0,WNW,8.1,18.4,N/A,,Clear,290,2013-04-20 13:52:00
10:52 AM,52.0,36.0,54,29.85,10.0,West,16.1,23.0,N/A,,Partly Cloudy,280,2013-04-20 14:52:00
11:52 AM,54.0,34.0,47,29.87,10.0,West,9.2,18.4,N/A,,Scattered Clouds,280,2013-04-20 15:52:00
12:52 PM,54.0,34.0,47,29.88,10.0,WNW,12.7,21.9,N/A,,Scattered Clouds,300,2013-04-20 16:52:00
1:52 PM,54.0,28.9,38,29.89,10.0,West,13.8,26.5,N/A,,Clear,280,2013-04-20 17:52:00
2:52 PM,54.0,30.0,40,29.91,10.0,WNW,10.4,21.9,N/A,,Mostly Cloudy,290,2013-04-20 18:52:00
3:52 PM,55.9,28.9,36,29.91,10.0,WNW,15.0,23.0,N/A,,Clear,300,2013-04-20 19:52:00
4:50 PM,57.2,26.6,31,29.94,10.0,West,10.4,23.0,N/A,,Scattered Clouds,280,2013-04-20 20:50:00
4:52 PM,57.0,26.1,30,29.94,10.0,WNW,16.1,24.2,N/A,,Scattered Clouds,290,2013-04-20 20:52:00
5:52 PM,55.9,26.1,32,29.99,10.0,West,15.0,21.9,N/A,,Scattered Clouds,280,2013-04-20 21:52:00
6:52 PM,54.0,27.0,35,30.03,10.0,WNW,18.4,24.2,N/A,,Clear,300,2013-04-20 22:52:00
7:52 PM,50.0,25.0,38,30.07,10.0,WNW,13.8,-,N/A,,Clear,300,2013-04-20 23:52:00
8:52 PM,48.0,24.1,39,30.13,10.0,NW,9.2,18.4,N/A,,Clear,310,2013-04-21 00:52:00
9:52 PM,46.0,25.0,44,30.18,10.0,WNW,9.2,-,N/A,,Clear,300,2013-04-21 01:52:00
10:52 PM,44.1,21.0,40,30.21,10.0,WNW,20.7,31.1,N/A,,Clear,300,2013-04-21 02:52:00
11:52 PM,41.0,21.0,45,30.24,10.0,NW,15.0,25.3,N/A,,Clear,310,2013-04-21 03:52:00